FW7253 Weather Reports


time (UTC)temp
F
wind
direction
speed
knots
gust
knots
rain 1hr
in
rain 24hr
in
rain mn
in
humidity
%
barometer
mb
20260510103043 47 115 0.0 7.0 0.00 0.21 0.21 78 1012.4
20260510102534 46 0 0.0 7.0 0.00 0.21 0.21 76 1012.5
20260510102034 45 345 2.6 7.0 0.00 0.21 0.21 82 1012.5
20260510101540 44 0 1.7 5.2 0.00 0.21 0.21 80 1012.6
20260510101032 44 322 0.0 6.1 0.00 0.21 0.21 81 1012.9
20260510100534 44 0 0.9 6.1 0.00 0.21 0.21 82 1012.7
20260510100035 44 351 3.5 6.1 0.00 0.21 0.21 80 1012.9
20260510095534 44 337 0.9 5.2 0.00 0.21 0.21 82 1013.0
20260510095033 44 338 0.9 5.2 0.00 0.21 0.21 82 1013.0
20260510094546 44 323 0.9 5.2 0.00 0.21 0.21 82 1013.0
20260510094033 44 324 2.6 7.8 0.00 0.21 0.21 86 1013.0
20260510093533 44 335 3.5 7.8 0.00 0.21 0.21 83 1013.1
20260510093042 43 0 0.0 5.2 0.00 0.21 0.21 85 1013.2
20260510092536 43 0 0.0 5.2 0.00 0.21 0.21 85 1013.2
20260510092034 43 0 1.7 6.1 0.00 0.21 0.21 85 1013.2
20260510091540 43 338 0.0 6.1 0.00 0.21 0.21 84 1013.4
20260510091033 43 335 1.7 6.1 0.00 0.21 0.21 88 1013.3
20260510090534 41 319 2.6 8.7 0.01 0.21 0.21 88 1013.5
20260510090042 41 338 4.3 8.7 0.00 0.20 0.20 88 1013.6
20260510085533 40 340 5.2 9.6 0.00 0.20 0.20 88 1013.6
20260510085033 40 342 5.2 9.6 0.01 0.20 0.20 88 1013.7
20260510084540 40 359 1.7 7.8 0.01 0.20 0.20 89 1013.7
20260510084033 40 360 0.9 7.8 0.02 0.20 0.20 89 1013.8
20260510083535 40 1 3.5 7.8 0.02 0.20 0.20 90 1013.8
20260510083039 40 359 2.6 6.1 0.03 0.20 0.20 90 1013.8
20260510082534 39 12 2.6 7.0 0.03 0.20 0.20 90 1013.9
20260510082032 39 324 2.6 7.0 0.04 0.20 0.20 90 1014.0
20260510081544 39 292 4.3 7.0 0.05 0.20 0.20 90 1014.1
20260510081034 39 333 3.5 7.0 0.06 0.20 0.20 90 1014.2
20260510080533 39 345 2.6 7.8 0.06 0.19 0.19 90 1014.2
20260510080038 38 338 3.5 7.8 0.06 0.19 0.19 90 1014.3
20260510075535 38 6 4.3 7.8 0.06 0.18 0.18 90 1014.3
20260510075035 38 318 2.6 9.6 0.06 0.18 0.18 91 1014.4
20260510074543 38 325 5.2 9.6 0.07 0.18 0.18 91 1014.5
20260510074035 38 316 3.5 7.0 0.06 0.18 0.18 91 1014.4
20260510073535 38 340 3.5 7.0 0.06 0.18 0.18 91 1014.4
20260510073101 38 328 4.3 7.0 0.06 0.17 0.17 91 1014.4
20260510072533 38 343 3.5 8.7 0.05 0.16 0.16 91 1014.4
20260510072035 38 340 4.3 8.7 0.05 0.15 0.15 91 1014.4
20260510071542 38 331 3.5 6.1 0.05 0.14 0.14 91 1014.5
20260510071032 38 342 3.5 5.2 0.04 0.14 0.14 91 1014.6
20260510070532 38 307 2.6 6.1 0.04 0.13 0.13 91 1014.6
20260510070051 38 338 3.5 7.8 0.05 0.13 0.13 91 1014.7
20260510065536 38 6 3.5 7.8 0.04 0.12 0.12 91 1014.7
20260510065037 38 330 3.5 9.6 0.05 0.12 0.12 91 1014.6
20260510064553 38 356 2.6 9.6 0.05 0.11 0.11 91 1014.7
20260510064033 38 321 5.2 9.6 0.05 0.11 0.11 91 1014.7
20260510063532 38 326 3.5 9.6 0.05 0.11 0.11 91 1014.7
20260510063047 38 334 5.2 9.6 0.05 0.11 0.11 91 1014.8
20260510062533 38 297 2.6 6.1 0.04 0.10 0.10 91 1014.7
20260510062033 38 330 4.3 6.1 0.04 0.10 0.10 91 1014.9
20260510061546 38 1 3.5 7.0 0.03 0.09 0.09 90 1014.8
20260510061033 39 342 4.3 7.0 0.04 0.09 0.09 90 1014.9
20260510060534 39 347 3.5 7.0 0.03 0.08 0.08 91 1014.7
20260510060042 39 330 4.3 8.7 0.03 0.07 0.07 90 1014.8
20260510055533 39 310 4.3 8.7 0.03 0.07 0.07 90 1014.8
20260510055036 39 330 5.2 7.8 0.03 0.07 0.07 91 1014.8
20260510054539 39 355 3.5 7.8 0.03 0.06 0.06 91 1014.8
20260510054035 39 326 3.5 7.8 0.03 0.06 0.06 91 1014.8
20260510053532 39 349 5.2 7.8 0.02 0.05 0.05 91 1014.7
20260510053047 39 339 3.5 9.6 0.02 0.05 0.05 91 1014.7
20260510052533 40 331 5.2 9.6 0.03 0.05 0.05 91 1014.8
20260510052035 40 4 3.5 7.0 0.03 0.05 0.05 91 1014.8
20260510051548 40 22 4.3 7.0 0.02 0.04 0.04 91 1014.7
20260510051037 40 15 3.5 9.6 0.02 0.04 0.04 91 1014.9
20260510050535 40 357 3.5 9.6 0.02 0.04 0.04 91 1014.9
20260510050046 40 351 2.6 5.2 0.03 0.04 0.04 91 1015.0
20260510045533 40 333 2.6 4.3 0.02 0.03 0.03 91 1015.0
20260510045035 40 347 1.7 7.8 0.02 0.03 0.03 91 1015.1
20260510044549 40 356 3.5 7.8 0.01 0.03 0.03 90 1015.2
20260510044033 40 338 3.5 7.0 0.02 0.03 0.03 90 1015.2
20260510043533 40 11 3.5 6.1 0.02 0.03 0.03 90 1015.1
20260510043041 40 15 3.5 6.1 0.02 0.03 0.03 90 1015.2
20260510042532 40 333 3.5 7.0 0.02 0.02 0.02 90 1015.2
20260510042032 40 331 4.3 7.8 0.02 0.02 0.02 90 1015.2
20260510041550 40 349 4.3 8.7 0.02 0.02 0.02 89 1015.3
20260510041033 40 344 5.2 8.7 0.02 0.02 0.02 89 1015.3
20260510040533 40 358 4.3 7.8 0.02 0.02 0.02 89 1015.4
20260510040053 41 334 4.3 7.8 0.01 0.01 0.01 89 1015.4
20260510035532 41 355 4.3 7.8 0.01 0.01 0.01 89 1015.5
20260510035032 41 350 4.3 7.8 0.01 0.01 0.01 89 1015.5
20260510034538 41 343 4.3 7.8 0.01 0.01 0.01 89 1015.6
20260510034033 41 345 2.6 7.8 0.00 0.00 0.00 88 1015.7
20260510033533 41 342 3.5 8.7 0.00 0.00 0.00 88 1015.7
20260510033047 41 22 4.3 8.7 0.00 0.00 0.00 88 1015.6
20260510032536 41 353 4.3 7.0 0.00 0.00 0.00 88 1015.8
20260510032036 42 330 4.3 7.0 0.00 0.00 0.00 88 1015.9
20260510031551 42 337 4.3 7.0 0.00 0.00 0.00 89 1016.0
20260510031034 42 27 3.5 6.1 0.00 0.00 0.00 89 1016.0
20260510030533 42 335 2.6 6.1 0.00 0.00 0.00 89 1016.0
20260510030043 42 346 3.5 5.2 0.00 0.00 0.00 89 1016.0
20260510025533 42 325 3.5 5.2 0.00 0.00 0.00 89 1016.0
20260510025035 42 343 3.5 7.0 0.00 0.00 0.00 89 1016.2
20260510024541 42 339 3.5 7.0 0.00 0.00 0.00 89 1016.2
20260510024033 42 325 3.5 7.0 0.00 0.00 0.00 89 1016.1
20260510023534 42 357 3.5 7.0 0.00 0.00 0.00 89 1016.1
20260510023039 42 335 3.5 7.0 0.00 0.00 0.00 89 1016.3
20260510022533 42 326 4.3 7.0 0.00 0.00 0.00 90 1016.4
20260510022032 42 347 3.5 5.2 0.00 0.00 0.00 90 1016.4
20260510021545 42 322 2.6 6.1 0.00 0.00 0.00 90 1016.4
20260510021033 42 340 2.6 6.1 0.00 0.00 0.00 89 1016.6
20260510020532 42 348 3.5 6.1 0.00 0.00 0.00 89 1016.5
20260510020046 42 355 2.6 4.3 0.00 0.00 0.00 89 1016.6
20260510015533 42 321 2.6 4.3 0.00 0.00 0.00 89 1016.5
20260510015036 42 336 2.6 4.3 0.00 0.00 0.00 89 1016.6
20260510014541 42 338 1.7 4.3 0.00 0.00 0.00 89 1016.5
20260510014034 42 345 1.7 1.7 0.00 0.00 0.00 88 1016.6
20260510013533 42 357 0.9 1.7 0.00 0.00 0.00 88 1016.7
20260510013041 42 5 0.0 0.9 0.00 0.00 0.00 87 1016.8
20260510012533 42 0 0.0 0.9 0.00 0.00 0.00 86 1016.7
20260510012034 43 0 0.0 0.9 0.00 0.00 0.00 85 1016.8
20260510011538 43 0 0.0 4.3 0.00 0.00 0.00 85 1016.7
20260510011032 43 0 0.9 4.3 0.00 0.00 0.00 84 1016.8
20260510010532 43 41 0.0 5.2 0.00 0.00 0.00 83 1016.8
20260510010038 44 78 0.9 5.2 0.00 0.00 0.00 82 1016.8
20260510005533 44 75 0.0 5.2 0.00 0.00 0.00 80 1017.0
20260510005032 44 356 0.9 5.2 0.00 0.00 0.00 80 1017.0
20260510004537 44 330 0.0 3.5 0.00 0.00 0.00 80 1016.9
20260510004040 43 0 0.0 3.5 0.00 0.00 0.00 81 1017.1
20260510003536 43 31 0.0 2.6 0.00 0.00 0.00 82 1017.1
20260510003049 42 0 0.9 5.2 0.00 0.00 0.00 83 1017.1
20260510002536 42 346 1.7 5.2 0.00 0.00 0.00 83 1017.1
20260510002036 41 343 2.6 5.2 0.00 0.00 0.00 84 1017.2
20260510001552 41 0 0.0 0.9 0.00 0.00 0.00 84 1017.3
20260510001035 41 0 0.0 0.9 0.00 0.00 0.00 85 1017.3
20260510000535 41 0 0.0 1.7 0.00 0.00 0.00 85 1017.4
20260510000044 41 0 0.0 1.7 0.00 0.00 0.00 85 1017.4
20260509235535 41 0 0.0 0.9 0.00 0.00 0.00 85 1017.6
20260509235035 41 0 0.0 0.9 0.00 0.00 0.00 84 1017.6
20260509234547 41 0 0.0 0.9 0.00 0.00 0.00 85 1017.6
20260509234035 41 0 0.0 0.9 0.00 0.00 0.00 85 1017.6
20260509233535 40 0 0.0 0.0 0.00 0.00 0.00 85 1017.6
20260509233052 40 0 0.0 0.9 0.00 0.00 0.00 85 1017.7
20260509232535 40 0 0.0 0.9 0.00 0.00 0.00 85 1017.7
20260509232035 40 0 0.0 0.9 0.00 0.00 0.00 85 1017.8
20260509231546 40 96 0.0 0.0 0.00 0.00 0.00 85 1017.7
20260509231034 40 0 0.0 0.0 0.00 0.00 0.00 84 1017.8
20260509230534 40 0 0.0 0.0 0.00 0.00 0.00 83 1017.8
20260509230045 40 0 0.0 0.0 0.00 0.00 0.00 83 1017.9
20260509225536 40 0 0.0 0.0 0.00 0.00 0.00 82 1017.9
20260509225038 40 0 0.0 0.0 0.00 0.00 0.00 82 1017.9
20260509224556 41 0 0.0 0.0 0.00 0.00 0.00 82 1017.9
20260509224035 41 0 0.0 0.0 0.00 0.00 0.00 81 1017.9
20260509223535 41 0 0.0 0.0 0.00 0.00 0.00 81 1017.9
20260509223050 41 0 0.0 0.0 0.00 0.00 0.00 81 1018.0
20260509222534 41 0 0.0 0.0 0.00 0.00 0.00 81 1018.1
20260509222036 41 0 0.0 0.0 0.00 0.00 0.00 80 1018.1
20260509221602 42 0 0.0 0.0 0.00 0.00 0.00 79 1018.2
20260509221035 42 0 0.0 0.0 0.00 0.00 0.00 79 1018.2
20260509220534 42 0 0.0 0.0 0.00 0.00 0.00 79 1018.2
20260509220049 42 0 0.0 0.0 0.00 0.00 0.00 78 1018.3
20260509215535 42 0 0.0 0.0 0.00 0.00 0.00 78 1018.3
20260509215035 42 0 0.0 0.0 0.00 0.00 0.00 78 1018.3
20260509214545 42 312 0.0 0.0 0.00 0.00 0.00 78 1018.4
20260509214037 42 0 0.0 0.0 0.00 0.00 0.00 77 1018.4
20260509213532 42 0 0.0 0.0 0.00 0.00 0.00 77 1018.4
20260509213045 42 0 0.0 0.9 0.00 0.00 0.00 77 1018.5
20260509212532 43 308 0.0 0.9 0.00 0.00 0.00 75 1018.4
20260509212033 44 189 0.0 0.9 0.00 0.00 0.00 74 1018.5
20260509211546 44 0 0.0 2.6 0.00 0.00 0.00 74 1018.5
20260509211033 44 98 0.0 2.6 0.00 0.00 0.00 73 1018.6
20260509210532 44 119 0.0 0.9 0.00 0.00 0.00 73 1018.6
20260509210044 44 128 0.0 1.7 0.00 0.00 0.00 72 1018.6
20260509205533 45 0 0.0 3.5 0.00 0.00 0.00 72 1018.7
20260509205033 45 97 1.7 3.5 0.00 0.00 0.00 71 1018.6
20260509204541 45 139 0.9 2.6 0.00 0.00 0.00 71 1018.7
20260509204033 45 115 0.0 2.6 0.00 0.00 0.00 71 1018.8
20260509203534 45 0 0.9 2.6 0.00 0.00 0.00 71 1018.8
20260509203043 45 141 0.9 4.3 0.00 0.00 0.00 71 1018.7
20260509202533 45 101 0.9 4.3 0.00 0.00 0.00 71 1018.8
20260509202034 45 126 0.9 3.5 0.00 0.00 0.00 71 1018.9
20260509201547 45 82 1.7 3.5 0.00 0.00 0.00 71 1018.7
20260509201035 46 149 1.7 3.5 0.00 0.00 0.00 69 1018.8
20260509200532 46 135 1.7 2.6 0.00 0.00 0.00 68 1018.8
20260509200045 46 120 0.9 2.6 0.00 0.00 0.00 67 1018.8
20260509195532 46 156 0.9 3.5 0.00 0.00 0.00 66 1018.9
20260509195032 46 177 0.9 4.3 0.00 0.00 0.00 66 1018.9
20260509194545 47 174 1.7 5.2 0.00 0.00 0.00 67 1018.9
20260509194033 47 183 2.6 5.2 0.00 0.00 0.00 65 1018.8
20260509193532 47 192 2.6 5.2 0.00 0.00 0.00 63 1018.8
20260509193044 47 195 2.6 4.3 0.00 0.00 0.00 63 1018.9
20260509192533 47 165 1.7 4.3 0.00 0.00 0.00 63 1018.9
20260509192033 48 219 1.7 3.5 0.00 0.00 0.00 62 1019.1
20260509191539 48 162 0.9 3.5 0.00 0.00 0.00 61 1019.0
20260509191035 49 0 0.9 2.6 0.00 0.00 0.00 60 1019.0
20260509190532 49 120 0.9 3.5 0.00 0.00 0.00 58 1019.0
20260509190043 49 174 1.7 3.5 0.00 0.00 0.00 57 1019.1
20260509185533 49 165 1.7 3.5 0.00 0.00 0.00 56 1019.1
20260509185033 49 166 0.9 2.6 0.00 0.00 0.00 55 1019.1
20260509184545 50 150 0.0 2.6 0.00 0.00 0.00 54 1019.2
20260509184032 50 193 0.9 1.7 0.00 0.00 0.00 54 1019.2
20260509183533 50 162 0.0 3.5 0.00 0.00 0.00 53 1019.3
20260509183047 50 0 0.0 5.2 0.00 0.00 0.00 53 1019.3
20260509182534 50 224 2.6 6.1 0.00 0.00 0.00 52 1019.3
20260509182034 50 191 4.3 9.6 0.00 0.00 0.00 52 1019.3
20260509181547 51 139 5.2 9.6 0.00 0.00 0.00 51 1019.2
20260509181035 51 175 1.7 7.0 0.00 0.00 0.00 51 1019.3
20260509180535 51 150 2.6 10.4 0.00 0.00 0.00 49 1019.3
20260509180050 51 206 7.0 10.4 0.00 0.00 0.00 48 1019.3
20260509175534 52 233 7.0 9.6 0.00 0.00 0.00 47 1019.2
20260509175034 52 201 4.3 8.7 0.00 0.00 0.00 46 1019.2
20260509174539 52 221 2.6 10.4 0.00 0.00 0.00 46 1019.2
20260509174034 52 217 6.1 12.2 0.00 0.00 0.00 45 1019.3
20260509173535 53 218 7.8 14.8 0.00 0.00 0.00 44 1019.3
20260509173048 53 227 8.7 14.8 0.00 0.00 0.00 42 1019.3
20260509172536 53 169 8.7 14.8 0.00 0.00 0.00 42 1019.4
20260509172035 53 225 8.7 16.5 0.00 0.00 0.00 42 1019.5
20260509171551 53 224 9.6 16.5 0.00 0.00 0.00 41 1019.5
20260509171034 54 141 11.3 15.6 0.00 0.00 0.00 41 1019.6
20260509170534 54 214 10.4 15.6 0.00 0.00 0.00 41 1019.7
20260509170047 54 204 8.7 15.6 0.00 0.00 0.00 41 1019.7
20260509165534 55 127 9.6 18.2 0.00 0.00 0.00 41 1019.6
20260509165038 55 217 8.7 18.2 0.00 0.00 0.00 39 1019.6
20260509164550 55 248 9.6 18.2 0.00 0.00 0.00 39 1019.7
20260509164035 55 220 11.3 18.2 0.00 0.00 0.00 39 1019.7
20260509163537 55 202 9.6 21.7 0.00 0.00 0.00 39 1019.7
20260509163042 55 177 10.4 21.7 0.00 0.00 0.00 39 1019.9
20260509162534 55 200 14.8 21.7 0.00 0.00 0.00 37 1020.0
20260509162035 55 199 8.7 20.9 0.00 0.00 0.00 38 1019.9
20260509161541 56 205 13.9 21.7 0.00 0.00 0.00 37 1020.2
20260509161034 56 236 9.6 21.7 0.00 0.00 0.00 37 1020.2
20260509160535 56 231 12.2 20.0 0.00 0.00 0.00 38 1020.2
20260509160051 56 236 13.0 20.0 0.00 0.00 0.00 38 1020.2
20260509155535 56 228 13.0 20.0 0.00 0.00 0.00 37 1020.3
20260509155034 56 206 11.3 18.2 0.00 0.00 0.00 36 1020.3
20260509154539 56 224 12.2 17.4 0.00 0.00 0.00 36 1020.4
20260509154034 56 205 10.4 18.2 0.00 0.00 0.00 34 1020.3
20260509153537 57 240 13.9 18.2 0.00 0.00 0.00 35 1020.4
20260509153053 57 263 12.2 17.4 0.00 0.00 0.00 34 1020.4
20260509152532 58 215 9.6 18.2 0.00 0.00 0.00 35 1020.4
20260509152034 57 219 12.2 22.6 0.00 0.00 0.00 35 1020.5
20260509151545 57 216 13.9 22.6 0.00 0.00 0.00 34 1020.5
20260509151033 57 212 11.3 19.1 0.00 0.00 0.00 35 1020.6
20260509150533 57 219 10.4 19.1 0.00 0.00 0.00 33 1020.7
20260509150049 57 212 12.2 19.1 0.00 0.00 0.00 32 1020.7
20260509145534 57 214 10.4 18.2 0.00 0.00 0.00 33 1020.7
20260509145032 58 231 10.4 18.2 0.00 0.00 0.00 32 1020.9
20260509144540 57 214 10.4 17.4 0.00 0.00 0.00 32 1020.9
20260509144033 57 184 9.6 16.5 0.00 0.00 0.00 35 1020.9
20260509143534 57 187 7.8 17.4 0.00 0.00 0.00 36 1020.8
20260509143040 57 175 9.6 20.0 0.00 0.00 0.00 34 1020.9
20260509142535 57 207 9.6 20.0 0.00 0.00 0.00 34 1021.0
20260509142033 58 198 9.6 17.4 0.00 0.00 0.00 36 1021.0
20260509141547 58 219 7.0 17.4 0.00 0.00 0.00 35 1020.9
20260509141037 58 219 10.4 17.4 0.00 0.00 0.00 35 1020.9
20260509140533 58 225 8.7 15.6 0.00 0.00 0.00 35 1021.0
20260509140053 58 213 9.6 15.6 0.00 0.00 0.00 33 1021.0
20260509135534 58 99 7.8 20.0 0.00 0.00 0.00 34 1021.1
20260509135036 58 208 11.3 20.0 0.00 0.00 0.00 33 1021.1
20260509134611 59 230 9.6 17.4 0.00 0.00 0.00 34 1021.2
20260509134033 59 214 12.2 17.4 0.00 0.00 0.00 32 1021.2
20260509133532 59 158 9.6 16.5 0.00 0.00 0.00 32 1021.2
20260509133045 59 167 10.4 18.2 0.00 0.00 0.00 32 1021.1
20260509132533 59 204 8.7 20.9 0.00 0.00 0.00 32 1021.3
20260509132036 59 146 12.2 21.7 0.00 0.00 0.00 30 1021.6
20260509131549 60 207 9.6 21.7 0.00 0.00 0.00 30 1021.6
20260509131035 61 217 12.2 19.1 0.00 0.00 0.00 28 1021.5
20260509130534 61 219 13.9 20.0 0.00 0.00 0.00 28 1021.6
20260509130041 61 224 13.9 20.9 0.00 0.00 0.00 27 1021.6
20260509125532 61 216 14.8 20.9 0.00 0.00 0.00 27 1021.7
20260509125036 60 215 13.0 22.6 0.00 0.00 0.00 27 1021.8
20260509124539 60 221 14.8 22.6 0.00 0.00 0.00 27 1021.8
20260509124033 60 250 13.9 22.6 0.00 0.00 0.00 27 1021.9
20260509123533 60 198 12.2 18.2 0.00 0.00 0.00 26 1021.9
20260509123038 60 234 12.2 18.2 0.00 0.00 0.00 28 1021.9
20260509122532 60 229 13.0 18.2 0.00 0.00 0.00 27 1021.9
20260509122034 60 226 12.2 17.4 0.00 0.00 0.00 28 1022.0
20260509121551 59 207 9.6 17.4 0.00 0.00 0.00 30 1022.0
20260509121032 60 224 7.8 15.6 0.00 0.00 0.00 31 1022.1
20260509120532 60 235 10.4 18.2 0.00 0.00 0.00 32 1022.0
20260509120043 60 217 8.7 18.2 0.00 0.00 0.00 34 1022.0
20260509115532 60 216 10.4 18.2 0.00 0.00 0.00 32 1022.0
20260509115034 59 161 8.7 18.2 0.00 0.00 0.00 33 1022.1
20260509114547 60 113 10.4 18.2 0.00 0.00 0.00 34 1022.0
20260509114033 60 153 7.8 15.6 0.00 0.00 0.00 34 1022.2
20260509113534 60 199 9.6 15.6 0.00 0.00 0.00 34 1022.2
20260509113042 60 236 7.0 17.4 0.00 0.00 0.00 38 1022.2
20260509112532 60 205 11.3 17.4 0.00 0.00 0.00 36 1022.3
20260509112032 60 225 13.0 17.4 0.00 0.00 0.00 36 1022.3
20260509111541 60 219 9.6 17.4 0.00 0.00 0.00 35 1022.4
20260509111032 59 233 12.2 17.4 0.00 0.00 0.00 36 1022.3
20260509110536 58 220 9.6 20.9 0.00 0.00 0.00 35 1022.4
20260509110047 58 229 12.2 20.9 0.00 0.00 0.00 35 1022.5
20260509105532 58 207 7.8 19.1 0.00 0.00 0.00 37 1022.3
20260509105032 58 203 10.4 15.6 0.00 0.00 0.00 40 1022.5
20260509104549 58 207 8.7 14.8 0.00 0.00 0.00 43 1022.6
20260509104032 58 227 10.4 14.8 0.00 0.00 0.00 49 1022.5
20260509103533 58 217 8.7 13.0 0.00 0.00 0.00 45 1022.4